HES150 LIRU-LISD

Flight info

Callsign HES150
Flight time N/A
Altitude 1500
Route LAGIUSTINIANA STADIOOLIMPICO SS1AURELIA TRIGORIA APRILIA BORGOMONTELLO BORGOISONZO BELLAFARNIA
Aircraft C172/L-SDE3/C

Departure

Time 2026-05-07 17:56
Airport Rome Urbe Airport (LIRU)

Arrival

Time N/A
Airport LISD
Time Latitude Longitude Altitude Speed Heading
2026-05-07 17:51 41.95558 12.50418 56 ft 0 kts 92°
2026-05-07 17:52 41.95564 12.50423 53 ft 4 kts 338°
2026-05-07 17:53 41.95567 12.50380 56 ft 6 kts 232°
2026-05-07 17:53 41.95522 12.50351 56 ft 9 kts 193°
2026-05-07 17:53 41.95456 12.50333 53 ft 11 kts 191°
2026-05-07 17:53 41.95377 12.50312 56 ft 13 kts 191°
2026-05-07 17:54 41.95287 12.50309 53 ft 14 kts 165°
2026-05-07 17:54 41.95189 12.50357 56 ft 16 kts 158°
2026-05-07 17:54 41.95083 12.50409 57 ft 17 kts 161°
2026-05-07 17:54 41.94974 12.50463 55 ft 16 kts 159°
2026-05-07 17:55 41.94880 12.50492 57 ft 13 kts 172°
2026-05-07 17:55 41.94818 12.50460 55 ft 7 kts 256°
2026-05-07 17:55 41.94842 12.50414 58 ft 14 kts 336°
2026-05-07 17:55 41.95086 12.50286 57 ft 60 kts 339°
2026-05-07 17:56 41.95525 12.50072 216 ft 65 kts 342°
2026-05-07 17:56 41.95996 12.49895 380 ft 72 kts 344°
2026-05-07 17:56 41.96500 12.49748 565 ft 75 kts 348°
2026-05-07 17:56 41.97021 12.49522 701 ft 83 kts 333°
2026-05-07 17:57 41.97593 12.49029 677 ft 104 kts 323°
2026-05-07 17:57 41.97915 12.48581 805 ft 100 kts 309°
2026-05-07 17:57 41.98401 12.47503 1074 ft 96 kts 297°
2026-05-07 17:57 41.98584 12.46674 1342 ft 93 kts 283°
2026-05-07 17:58 41.98624 12.45793 1499 ft 97 kts 272°
2026-05-07 17:58 41.98569 12.44891 1680 ft 99 kts 265°
2026-05-07 17:58 41.98359 12.43915 1722 ft 116 kts 253°
2026-05-07 17:58 41.98023 12.42980 1792 ft 105 kts 247°